DW7816 Weather Reports


time (UTC)temp
F
wind
direction
speed
knots
gust
knots
rain 1hr
in
rain 24hr
in
rain mn
in
humidity
%
barometer
mb
20260505190111 53 114 1.7 8.7 0.00 0.09 0.10 87 1007.6
20260505185133 54 94 1.7 11.3 0.00 0.09 0.10 89 1007.7
20260505184111 54 102 2.6 11.3 0.00 0.09 0.10 87 1007.8
20260505182036 55 108 3.5 10.4 0.00 0.09 0.10 86 1007.3
20260505181032 56 123 2.6 10.4 0.00 0.09 0.10 87 1007.1
20260505180040 56 136 2.6 8.7 0.00 0.09 0.10 86 1007.1
20260505175029 56 148 1.7 7.8 0.00 0.09 0.10 86 1007.2
20260505174037 56 80 0.9 10.4 0.00 0.09 0.10 87 1007.2
20260505173029 56 157 2.6 10.4 0.00 0.09 0.10 87 1007.3
20260505170912 56 95 2.6 7.8 0.00 0.09 0.10 87 1007.2
20260505165902 56 322 1.7 8.7 0.00 0.09 0.10 87 1007.2
20260505163750 57 128 1.7 7.0 0.00 0.09 0.10 85 1007.1
20260505161641 57 51 2.6 10.4 0.00 0.09 0.10 88 1007.4
20260505160616 58 48 2.6 10.4 0.00 0.09 0.10 88 1007.6
20260505152647 59 130 5.2 9.6 0.00 0.09 0.10 88 1006.1
20260505151637 59 188 3.5 9.6 0.00 0.09 0.10 88 1006.0
20260505150608 59 113 4.3 7.8 0.00 0.09 0.10 86 1006.2
20260505140403 59 159 2.6 6.1 0.00 0.09 0.10 88 1006.2
20260505130300 57 126 2.6 8.7 0.00 0.09 0.10 89 1005.8
20260505124322 57 162 2.6 9.6 0.00 0.09 0.10 90 1005.7
20260505122208 58 173 3.5 8.7 0.00 0.09 0.10 91 1005.3
20260505121223 58 161 2.6 7.0 0.00 0.09 0.10 92 1005.6
20260505120240 58 108 0.9 7.0 0.00 0.09 0.10 92 1005.2
20260505115226 59 118 0.0 7.8 0.00 0.09 0.10 92 1005.4
20260505114203 59 175 0.9 5.2 0.00 0.09 0.10 93 1005.2
20260505113131 59 71 1.7 7.8 0.00 0.09 0.10 94 1004.5
20260505112142 60 220 0.9 0.9 0.00 0.09 0.10 95 1004.6
20260505111155 60 355 0.9 7.0 0.00 0.09 0.10 95 1005.8
20260505110139 60 67 1.7 7.0 0.00 0.09 0.10 94 1004.9
20260505102005 58 38 0.0 2.6 0.00 0.09 0.10 96 1004.4
20260505100958 59 203 0.0 0.0 0.00 0.09 0.10 95 1004.2
20260505100006 59 203 0.0 0.0 0.00 0.09 0.10 95 1004.0
20260505095005 59 203 0.0 0.0 0.00 0.09 0.10 94 1003.5
20260505094020 59 203 0.0 4.3 0.04 0.09 0.10 93 1003.5
20260505093002 59 290 2.6 8.7 0.04 0.09 0.10 94 1003.1
20260505092000 60 240 3.5 8.7 0.05 0.09 0.09 95 1002.7
20260505090947 60 211 0.9 3.5 0.06 0.08 0.08 94 1004.3
20260505084904 61 264 0.0 3.5 0.23 0.04 0.05 92 1005.3
20260505083845 61 22 0.0 0.0 0.08 0.02 0.02 91 1005.4
20260505082836 62 340 0.0 1.7 0.00 0.00 0.01 89 1005.3
20260505080638 63 204 1.7 8.7 0.00 0.00 0.00 83 1004.6
20260505075632 63 264 0.9 8.7 0.00 0.00 0.00 81 1004.7
20260505074602 63 236 0.0 3.5 0.00 0.00 0.00 81 1004.5
20260505073529 63 263 0.0 0.0 0.00 0.00 0.00 81 1004.5
20260505072544 63 202 0.0 2.6 0.00 0.00 0.00 80 1004.3
20260505071544 63 171 0.0 4.3 0.00 0.00 0.00 81 1004.4
20260505065400 63 206 0.0 4.3 0.00 0.00 0.00 81 1004.3
20260505064412 63 265 0.0 4.3 0.00 0.00 0.00 80 1004.7
20260505063429 63 245 0.9 4.3 0.00 0.00 0.00 80 1005.0
20260505061309 63 162 0.0 1.7 0.00 0.00 0.00 80 1005.2
20260505060300 63 266 0.9 5.2 0.00 0.00 0.00 80 1005.1
20260505055226 63 221 0.9 4.3 0.00 0.00 0.00 80 1005.0
20260505053048 63 238 0.0 4.3 0.00 0.00 0.00 80 1005.1
20260505052038 63 236 0.9 5.2 0.00 0.00 0.00 80 1005.1
20260505051005 63 227 0.9 5.2 0.00 0.00 0.00 81 1005.2
20260505041017 62 247 0.0 0.9 0.00 0.00 0.00 81 1005.9
20260505040031 63 261 0.0 0.9 0.00 0.00 0.00 81 1006.1
20260505035005 63 229 0.0 0.0 0.00 0.00 0.00 79 1006.2
20260505034007 64 232 0.0 0.0 0.00 0.00 0.00 79 1006.3
20260505031835 64 240 0.0 4.3 0.00 0.00 0.00 77 1006.3
20260505025656 64 238 0.0 1.7 0.00 0.00 0.00 78 1006.2
20260505024622 64 202 0.0 0.0 0.00 0.00 0.00 77 1006.1
20260505023619 64 195 0.0 0.9 0.00 0.00 0.00 77 1005.9
20260505022608 64 206 0.0 0.0 0.00 0.00 0.00 77 1005.6
20260505021538 65 206 0.0 0.0 0.00 0.00 0.00 75 1005.6
20260505020544 66 224 0.0 0.0 0.00 0.00 0.00 75 1005.4
20260505015603 67 254 0.0 0.9 0.00 0.00 0.00 74 1005.3
20260505014544 68 254 0.0 0.9 0.00 0.00 0.00 72 1005.1
20260505013542 68 254 0.0 0.9 0.00 0.00 0.00 70 1005.0
20260505012521 69 243 0.0 4.3 0.00 0.00 0.00 67 1004.9
20260505011534 70 249 0.0 4.3 0.00 0.00 0.00 68 1004.7
20260505010522 70 255 0.0 2.6 0.00 0.00 0.00 66 1004.6
20260505005500 71 240 0.0 0.0 0.00 0.00 0.00 65 1004.6
20260505004449 72 243 0.0 6.1 0.00 0.00 0.00 62 1004.3
20260505003433 72 222 0.9 6.1 0.00 0.00 0.00 61 1004.3
20260505002415 73 297 0.0 4.3 0.00 0.00 0.00 60 1004.2
20260505001440 74 244 0.9 7.0 0.00 0.00 0.00 60 1004.2
20260505000440 75 254 0.9 2.6 0.00 0.00 0.00 57 1004.3
20260504234302 76 275 1.7 8.7 0.00 0.00 0.00 53 1004.1
20260504233256 77 196 1.7 8.7 0.00 0.00 0.00 52 1004.1
20260504232258 78 279 0.9 5.2 0.00 0.00 0.00 53 1004.2
20260504231236 78 320 3.5 13.9 0.00 0.00 0.00 51 1004.2
20260504230233 78 238 3.5 13.9 0.00 0.00 0.00 51 1004.3
20260504225253 78 234 2.6 9.6 0.00 0.00 0.00 52 1004.2
20260504224254 79 216 3.5 10.4 0.00 0.00 0.00 50 1004.3
20260504223221 79 293 1.7 10.4 0.00 0.00 0.00 53 1004.2
20260504222201 79 273 3.5 10.4 0.00 0.00 0.00 52 1004.2
20260504221202 79 171 2.6 9.6 0.00 0.00 0.00 53 1004.3
20260504220130 79 205 2.6 12.2 0.00 0.00 0.00 53 1004.4
20260504214056 79 303 3.5 9.6 0.00 0.00 0.00 54 1004.5
20260504213036 80 246 2.6 14.8 0.00 0.00 0.00 55 1004.7
20260504212047 80 278 3.5 14.8 0.00 0.00 0.00 53 1004.6
20260504211046 80 331 2.6 12.2 0.00 0.00 0.00 55 1004.8
20260504210054 80 276 2.6 12.2 0.00 0.00 0.00 56 1004.9
20260504205114 79 250 3.5 11.3 0.00 0.00 0.00 54 1005.0
20260504202921 79 296 4.3 12.2 0.00 0.00 0.00 53 1005.4
20260504201848 79 274 2.6 8.7 0.00 0.00 0.00 56 1005.5
20260504200852 79 316 3.5 12.2 0.00 0.00 0.00 52 1005.6
20260504194729 79 260 4.3 12.2 0.00 0.00 0.00 58 1005.9
20260504193752 79 238 3.5 9.6 0.00 0.00 0.00 54 1005.9
20260504192732 79 23 2.6 10.4 0.00 0.00 0.00 56 1005.9